Regional Weather Roundup
Issued by NWS New Orleans/Baton Rouge, LA

Home | Current Version | Previous Version | Text Only | Print | Product List | Glossary Off
Versions: 1 2 3 4 5 6 7 8 9 10 11 12 13 14 15 16 17 18 19 20 21 22 23 24 25 26 27 28 29 30 31 32 33 34 35 36 37 38 39 40 41 42 43 44 45 46 47 48 49 50

721
ASUS44 KLIX 010305
RWRLIX
NEW ORLEANS REGIONAL WEATHER ROUNDUP
NATIONAL WEATHER SERVICE NEW ORLEANS LA
900 PM CST SAT FEB 28 2015

NOTE: "FAIR" INDICATES FEW OR NO CLOUDS BELOW 12,000 FEET WITH NO
      SIGNIFICANT WEATHER AND/OR OBSTRUCTIONS TO VISIBILITY.
      SKY/WX - SKY CONDITION AND SIGNIFICANT WEATHER.
      TMP - AIR TEMPERATURE.     DP    - DEWPOINT TEMPERATURE.
      RH  - RELATIVE HUMIDITY.   PRES  - PRESSURE.
      HI  - HEAT INDEX.          WCI   - WIND CHILL INDEX.

*  THESE STATIONS ARE NOT NWS OR FAA STATIONS AND ARE NOT UNDER
   NWS QUALITY CONTROL.

LAZ038-040-048-061>063-065>067-069-010400-
SOUTHEAST LOUISIANA

CITY           SKY/WX    TMP DP  RH WIND       PRES   REMARKS
N.O. AUDUBON     N/A     58  55  89 MISG        N/A
N.O. INTL ARPT MOCLDY    57  50  77 E9        30.34R
N.O. LAKEFRONT PTCLDY    56  50  80 E6        30.35R
SLIDELL        CLOUDY    56  50  80 E5        30.35S
BATON ROUGE    CLOUDY    56  49  77 E15       30.32F
BOOTHVILLE     CLOUDY    56  55  97 NE13      30.34R FOG
BELLE CHASSE   MOCLDY    58  51  78 E8        30.33S
BOGALUSA*        N/A     59  49  69 SE5       30.38R
GALLIANO*      MOCLDY    58  54  86 NE5       30.33R FOG
NEW ROADS*     CLOUDY    57  44  61 E9        30.32R
GONZALES*        N/A     56  51  82 CALM      30.34R
HAMMOND*       CLOUDY    55  48  76 CALM      30.37R
HOUMA*         CLEAR     55  52  90 E10       30.33R
PORT FOURCHON* CLOUDY    59  55  88 E15       30.34R FOG

$$

MSZ070-080>082-010400-
SOUTHERN MISSISSIPPI

CITY           SKY/WX    TMP DP  RH WIND       PRES   REMARKS
MCCOMB         MOCLDY    55  43  63 CALM      30.35R
GULFPORT       CLOUDY    56  52  86 SE10      30.37S
BILOXI         CLOUDY    57  54  88 SE8       30.38R
PASCAGOULA     CLOUDY    56  50  80 E5        30.39R
STENNIS ARPT*  CLEAR     54  48  82 E7        30.37S

$$

COASTAL OBSERVATIONS
LAKE AND NEARSHORE STATIONS

STATION/POSITION TIME  TEMP    WIND        PRES    WAVE
                       AIR SEA DIR/SP/G            HT/PER
                 (UTC) (F)     (DEG/KT/KT) (MB)    (FT/S)
PASCAGOULA       0300   57     120/  4/  7 1028.5
WAVELAND YACHT   0300   56 52  130/ 12/ 16 1027.9
GRAND ISLE       0300   57 57   80/ 14/ 19 1026.6
SOUTHWEST PASS   0300   57 48   70/ 16/ 17 1026.7
NEW CANAL        0300   56      90/  2/  5 1027.7
SHELL BEACH      0300   56 53   90/ 10/ 11 1027.5

OFFSHORE STATIONS

STATION/POSITION TIME  TEMP    WIND        PRES    WAVE
                       AIR SEA DIR/SP/G            HT/PER
                 (UTC) (F)     (DEG/KT/KT) (MB)    (FT/S)
64 S DAUPHIN ISL 0222   63 70   90/ 17/ 19 1027.9    5/ 7

$$




USA.gov is the U.S. government's official web portal to all federal, state and local government web resources and services.